Flag for Canada Weather past 2 weeks in Calgary, Alberta, Canada

39 °F

More clouds than sun.

Feels Like: 33 °F
Forecast: 34 / 59 °F
Wind: 9 mph from South

Location: Calgary International

Current Time: Oct 6, 2015 at 9:55:19 AM

Latest Report: Oct 6, 2015 at 9:00 AM

Visibility: 30 mi

Pressure: 30.17 "Hg (26.47 "Hg at 1063m altitude)

Humidity: 75%

Dew point: 32 °F

Location of CalgaryLocation

Historic Weather in Calgary — Graph


Calgary temperature yesterday

Maximum temperature yesterday: 54 °F (at 2:00 PM)
Minimum temperature yesterday: 34 °F (at 5:00 AM)
Average temperature yesterday: 43 °F

Past Weeks' High & Low Weather Summary

High70 °F (Sep 24, 6:00 PM)100% (Oct 5, 5:00 AM)30.48 "Hg (Oct 5, 5:00 AM)
Low34 °F (Oct 3, 7:49 AM)25% (Sep 27, 2:00 PM)29.85 "Hg (Sep 25, 7:00 AM)
Average48 °F61%30.09 "Hg
* Reported Sep 21 8:00 AM — Oct 6 8:00 AM, Calgary, Weather by CustomWeather, © 2015

Note: Actual official high and low records may vary slightly from our data, if they occured in-between our weather recording intervals... More about our weather records


Calgary weather history for previous 24 hours

Time TempWeatherWind HumidityBarometerVisibility
8:00 AM
Tue, Oct 6
34 °FPartly cloudy.7 mph87%30.19 "Hg15 mi
7:00 AM36 °FPartly cloudy.6 mph81%30.18 "Hg15 mi
6:00 AM36 °FPassing clouds.6 mph81%30.19 "Hg15 mi
5:00 AM36 °FPartly cloudy.5 mph81%30.18 "Hg15 mi
4:00 AM37 °FPartly cloudy.8 mph75%30.19 "Hg15 mi
3:00 AM36 °FPassing clouds.6 mph75%30.19 "Hg15 mi
2:00 AM37 °FClear.6 mph70%30.19 "Hg15 mi
1:00 AM37 °FClear.8 mph70%30.22 "Hg15 mi
12:00 AM36 °FClear.8 mph75%30.23 "Hg15 mi
11:00 PM
Mon, Oct 5
41 °FPassing clouds.8 mph61%30.23 "Hg15 mi
10:00 PM41 °FPassing clouds.7 mph61%30.23 "Hg15 mi
9:00 PM43 °FPassing clouds.7 mph57%30.23 "Hg15 mi
8:00 PM41 °FScattered clouds.8 mph61%30.23 "Hg15 mi
7:00 PM45 °FBroken clouds.7 mph61%30.22 "Hg25 mi
6:00 PM50 °FPartly sunny.10 mph50%30.18 "Hg30 mi
5:00 PM52 °FPartly sunny.14 mph50%30.17 "Hg30 mi
4:00 PM54 °FPartly sunny.9 mph47%30.16 "Hg30 mi
3:00 PM54 °FScattered clouds.8 mph44%30.15 "Hg30 mi
2:00 PM54 °FPartly sunny.9 mph47%30.15 "Hg30 mi
1:00 PM52 °FScattered clouds.9 mph47%30.15 "Hg40 mi
12:00 PM50 °FPassing clouds.13 mph50%30.14 "Hg40 mi
11:00 AM48 °FPassing clouds.15 mph50%30.14 "Hg40 mi
10:00 AM45 °FPassing clouds.8 mph53%30.14 "Hg40 mi
9:00 AM39 °FPassing clouds.8 mph70%30.13 "Hg40 mi
Weather by CustomWeather, © 2015

See weather overviewHow to use our weather pages